W1HVD Weather Reports


time (UTC)temp
F
wind
direction
speed
knots
gust
knots
rain 1hr
in
rain 24hr
in
rain mn
in
humidity
%
barometer
mb
20260507105329 48 197 0.0 0.9 0.00 0.44 0.44 99 1007.9
20260507104826 48 200 0.9 0.9 0.00 0.44 0.44 99 1007.7
20260507104323 48 183 0.0 0.0 0.05 0.44 0.44 99 1007.2
20260507103819 48 101 0.0 0.0 0.05 0.44 0.44 99 1007.6
20260507103315 48 128 0.9 0.9 0.00 0.43 0.43 99 1007.5
20260507102812 48 206 0.0 0.0 0.07 0.43 0.43 99 1008.0
20260507102309 48 211 0.0 0.0 0.07 0.43 0.43 99 1007.9
20260507101805 48 192 1.7 1.7 0.05 0.42 0.42 99 1007.8
20260507101304 48 216 0.0 0.9 0.05 0.42 0.42 99 1007.8
20260507100802 48 213 0.0 0.0 0.00 0.41 0.41 99 1008.0
20260507100300 48 261 0.9 1.7 0.07 0.41 0.41 99 1007.8
20260507095758 48 206 0.0 0.0 0.07 0.41 0.41 99 1007.6
20260507095254 48 225 0.9 0.9 0.00 0.40 0.40 99 1007.8
20260507094751 49 235 0.0 0.0 0.00 0.40 0.40 99 1007.4
20260507094248 49 216 0.0 0.9 0.00 0.40 0.40 99 1007.4
20260507093745 49 265 1.7 1.7 0.05 0.40 0.40 99 1007.6
20260507093244 50 208 0.0 0.0 0.05 0.40 0.40 99 1007.3
20260507092741 50 214 0.0 0.9 0.07 0.39 0.39 99 1007.1
20260507092236 51 222 0.0 0.9 0.07 0.39 0.39 99 1007.2
20260507091733 51 51 0.9 1.7 0.00 0.38 0.38 99 1007.0
20260507091230 51 207 0.0 0.0 0.05 0.38 0.38 99 1007.6
20260507090725 51 202 0.0 0.0 0.05 0.38 0.38 99 1007.5
20260507090222 51 213 0.0 0.9 0.05 0.38 0.38 99 1007.3
20260507085719 51 217 0.0 0.0 0.00 0.37 0.37 99 1007.0
20260507085216 51 186 0.0 0.0 0.00 0.37 0.37 99 1006.9
20260507084713 51 217 0.0 0.0 0.07 0.37 0.37 99 1006.9
20260507084209 51 180 0.0 0.0 0.12 0.37 0.37 99 1006.8
20260507083707 52 211 0.0 0.0 0.12 0.37 0.37 99 1006.6
20260507083204 52 167 0.0 0.0 0.07 0.35 0.35 99 1007.0
20260507082700 52 246 1.7 1.7 0.12 0.35 0.35 99 1006.9
20260507082155 52 160 1.7 3.5 0.12 0.35 0.35 99 1006.4
20260507081653 53 199 0.0 0.0 0.31 0.34 0.34 99 1006.9
20260507081149 53 219 0.9 0.9 0.42 0.32 0.32 99 1007.0
20260507080645 54 132 0.9 3.5 0.47 0.29 0.29 99 1006.7
20260507080143 55 202 0.9 0.9 0.54 0.25 0.25 99 1006.6
20260507075642 55 225 0.9 0.9 0.83 0.21 0.21 99 1007.3
20260507075139 55 185 0.0 0.9 0.83 0.16 0.16 99 1006.6
20260507074636 55 247 1.7 1.7 0.42 0.07 0.07 99 1006.4
20260507074134 55 189 0.0 0.0 0.12 0.02 0.02 99 1006.2
20260507073630 55 196 0.0 0.0 0.00 0.00 0.00 99 1005.9
20260507073127 55 194 0.0 0.0 0.00 0.00 0.00 99 1005.6
20260507072625 55 188 0.9 0.9 0.00 0.00 0.00 99 1005.8
20260507072122 55 202 0.0 0.0 0.00 0.00 0.00 99 1005.5
20260507071619 55 182 0.0 0.0 0.00 0.00 0.00 99 1005.8
20260507071115 55 198 0.0 0.0 0.00 0.00 0.00 99 1005.8
20260507070612 55 208 0.0 0.0 0.00 0.00 0.00 99 1005.9
20260507070109 55 196 0.0 0.0 0.00 0.00 0.00 99 1005.9
20260507065606 55 199 0.0 0.0 0.00 0.00 0.00 99 1005.7
20260507065103 55 195 0.0 0.0 0.00 0.00 0.00 99 1005.9
20260507064600 55 218 0.0 0.9 0.00 0.00 0.00 99 1006.0
20260507064059 55 205 0.0 0.0 0.00 0.00 0.00 99 1005.8
20260507063556 55 203 0.0 0.0 0.00 0.00 0.00 99 1005.8
20260507063053 55 202 0.0 0.0 0.00 0.00 0.00 99 1006.1
20260507062549 55 200 0.0 0.0 0.00 0.00 0.00 99 1005.8
20260507062047 55 210 0.0 0.0 0.00 0.00 0.00 99 1005.9
20260507061545 55 203 0.0 0.0 0.00 0.00 0.00 99 1005.9
20260507061043 55 108 0.0 0.9 0.00 0.00 0.00 99 1005.9
20260507060540 55 222 1.7 1.7 0.00 0.00 0.00 99 1006.0
20260507060037 55 204 0.0 0.0 0.00 0.00 0.00 99 1006.5
20260507055531 55 204 0.9 0.9 0.00 0.00 0.00 99 1006.1
20260507055028 56 210 0.0 0.0 0.00 0.00 0.00 99 1006.4
20260507054524 56 218 0.0 0.0 0.00 0.00 0.00 99 1006.4
20260507054021 56 199 0.0 0.9 0.00 0.00 0.00 99 1006.4
20260507053519 56 188 0.9 1.7 0.00 0.00 0.00 99 1006.4
20260507053017 56 198 0.9 0.9 0.00 0.00 0.00 99 1006.4
20260507052515 56 226 0.0 0.9 0.00 0.00 0.00 99 1006.5
20260507052011 56 181 0.9 1.7 0.00 0.00 0.00 99 1006.7
20260507051509 56 208 0.0 0.0 0.00 0.00 0.00 99 1006.7
20260507051006 56 200 0.9 0.9 0.00 0.00 0.00 99 1006.5
20260507050502 56 221 0.9 1.7 0.00 0.00 0.00 99 1006.6
20260507045959 56 245 0.0 0.9 0.00 0.00 0.00 99 1007.0
20260507045455 56 231 0.9 0.9 0.00 0.00 0.00 99 1006.8
20260507044953 56 197 0.0 0.0 0.00 0.00 0.00 99 1006.6
20260507044449 56 181 0.9 1.7 0.00 0.00 0.00 99 1006.8
20260507043945 56 213 0.0 0.9 0.00 0.00 0.00 99 1006.8
20260507043442 56 206 0.0 0.0 0.00 0.00 0.00 99 1006.8
20260507042938 56 195 1.7 1.7 0.00 0.00 0.00 99 1006.6
20260507042435 56 253 0.9 1.7 0.00 0.00 0.00 99 1006.5
20260507041931 56 213 0.0 0.9 0.00 0.00 0.00 99 1006.7
20260507041427 56 180 0.9 0.9 0.00 0.00 0.00 99 1006.7
20260507040925 56 205 0.0 0.9 0.00 0.00 0.00 99 1006.7
20260507040421 56 223 0.9 0.9 0.00 0.00 0.00 99 1006.7
20260507035917 56 234 0.0 0.9 0.00 0.17 0.17 99 1006.6
20260507035413 56 217 0.0 0.9 0.00 0.17 0.17 99 1006.6
20260507034910 56 205 0.0 0.0 0.00 0.17 0.17 99 1006.8
20260507034407 56 226 0.9 0.9 0.00 0.17 0.17 99 1006.9
20260507033905 56 156 1.7 1.7 0.00 0.17 0.17 99 1006.9
20260507033403 56 219 0.9 1.7 0.00 0.17 0.17 99 1007.2
20260507032859 56 206 0.0 0.0 0.00 0.17 0.17 99 1006.9
20260507032356 55 180 0.0 0.9 0.00 0.17 0.17 99 1007.0
20260507031852 55 225 1.7 2.6 0.00 0.17 0.17 99 1006.7
20260507031349 55 212 1.7 1.7 0.00 0.17 0.17 99 1006.8
20260507030846 55 201 3.5 6.1 0.00 0.17 0.17 99 1006.8
20260507030343 55 167 2.6 3.5 0.00 0.17 0.17 99 1006.8
20260507025840 55 207 0.9 1.7 0.00 0.17 0.17 99 1006.9
20260507025337 55 199 0.9 2.6 0.00 0.17 0.17 99 1006.8
20260507024835 55 247 0.9 1.7 0.00 0.17 0.17 99 1006.8
20260507024332 55 210 0.0 0.0 0.00 0.17 0.17 99 1006.6
20260507023828 55 209 0.0 0.9 0.00 0.17 0.17 99 1006.6
20260507023325 55 184 0.0 0.9 0.00 0.17 0.17 99 1006.6
20260507022823 55 234 0.0 0.9 0.00 0.17 0.17 99 1006.5
20260507022319 55 240 0.9 2.6 0.00 0.17 0.17 99 1006.5
20260507021815 55 227 1.7 1.7 0.00 0.17 0.17 99 1006.9
20260507021311 55 227 0.9 1.7 0.00 0.17 0.17 99 1006.8
20260507020809 55 218 1.7 2.6 0.00 0.17 0.17 99 1006.8
20260507020305 55 242 0.9 0.9 0.00 0.17 0.17 99 1007.2
20260507015802 55 198 0.9 0.9 0.00 0.17 0.17 99 1007.1
20260507015300 55 351 0.9 2.6 0.00 0.17 0.17 99 1007.5
20260507014757 55 188 1.7 3.5 0.00 0.17 0.17 99 1007.4
20260507014253 55 231 0.9 0.9 0.00 0.17 0.17 99 1007.3
20260507013750 55 218 3.5 3.5 0.00 0.17 0.17 99 1007.1
20260507013247 55 212 0.9 1.7 0.00 0.17 0.17 99 1007.4
20260507012744 55 236 0.9 1.7 0.00 0.17 0.17 99 1007.3
20260507012244 55 212 0.0 0.9 0.00 0.17 0.17 99 1007.3
20260507011743 55 195 4.3 6.1 0.00 0.17 0.17 99 1007.4
20260507011239 55 15 1.7 2.6 0.00 0.17 0.17 99 1007.4
20260507010738 55 47 1.7 2.6 0.00 0.17 0.17 99 1007.6
20260507010234 55 206 1.7 1.7 0.00 0.17 0.17 99 1007.5
20260507005732 55 218 1.7 2.6 0.00 0.17 0.17 99 1007.5
20260507005228 56 235 4.3 7.0 0.00 0.17 0.17 99 1007.4
20260507004725 56 199 1.7 2.6 0.00 0.17 0.17 99 1007.6
20260507004223 56 249 3.5 3.5 0.00 0.17 0.17 99 1007.4
20260507003719 56 213 3.5 3.5 0.00 0.17 0.17 99 1007.3
20260507003214 56 252 1.7 2.6 0.07 0.17 0.17 99 1007.3
20260507002710 56 232 3.5 5.2 0.07 0.17 0.17 99 1007.3
20260507002206 56 216 1.7 1.7 0.00 0.16 0.16 99 1007.3
20260507001703 56 203 3.5 3.5 0.00 0.16 0.16 99 1007.2
20260507001201 56 133 1.7 1.7 0.00 0.16 0.16 99 1007.3
20260507000657 56 187 0.9 0.9 0.00 0.16 0.16 99 1007.5
20260507000152 56 170 0.9 0.9 0.00 0.16 0.16 99 1007.2
20260506235650 56 197 1.7 3.5 0.00 0.16 0.16 99 1007.5
20260506235145 56 159 0.9 0.9 0.05 0.16 0.16 99 1007.2
20260506234642 57 230 1.7 1.7 0.05 0.16 0.16 99 1007.2
20260506234139 56 158 3.5 6.1 0.00 0.15 0.15 99 1007.4
20260506233636 56 191 0.9 0.9 0.07 0.15 0.15 99 1007.5
20260506233133 56 154 1.7 1.7 0.07 0.15 0.15 98 1007.3
20260506232629 56 222 0.9 0.9 0.00 0.14 0.14 98 1007.4
20260506232125 56 220 1.7 2.6 0.05 0.14 0.14 98 1007.5
20260506231622 56 243 7.0 8.7 0.12 0.14 0.14 98 1007.6
20260506231121 56 237 3.5 5.2 0.07 0.13 0.13 98 1007.4
20260506230617 56 187 3.5 5.2 0.07 0.12 0.12 98 1007.4
20260506230114 56 194 0.9 1.7 0.12 0.12 0.12 98 1007.4
20260506225611 56 202 5.2 8.7 0.12 0.11 0.11 98 1007.3
20260506225107 56 174 2.6 2.6 0.07 0.10 0.10 98 1007.3
20260506224604 56 226 1.7 2.6 0.05 0.09 0.09 97 1007.3
20260506224101 57 189 0.9 2.6 0.12 0.09 0.09 97 1007.6
20260506223556 57 106 1.7 2.6 0.07 0.08 0.08 97 1007.3
20260506223053 57 222 2.6 5.2 0.05 0.07 0.07 97 1007.5
20260506222550 57 203 0.9 0.9 0.05 0.07 0.07 96 1007.5
20260506222046 57 173 5.2 7.0 0.00 0.06 0.06 96 1007.7
20260506221544 57 86 1.7 3.5 0.00 0.06 0.06 96 1007.7
20260506221042 57 211 4.3 6.1 0.00 0.06 0.06 96 1007.8
20260506220537 57 225 2.6 3.5 0.00 0.06 0.06 96 1007.9
20260506220033 57 233 2.6 5.2 0.00 0.06 0.06 96 1008.0
20260506215530 57 238 3.5 3.5 0.00 0.06 0.06 97 1007.9
20260506215026 57 203 0.9 1.7 0.00 0.06 0.06 97 1007.9
20260506214523 57 231 1.7 2.6 0.00 0.06 0.06 97 1007.8
20260506214020 57 293 1.7 2.6 0.00 0.06 0.06 96 1008.0
20260506213518 57 152 0.9 2.6 0.07 0.06 0.06 96 1007.9
20260506213015 58 198 1.7 2.6 0.12 0.06 0.06 96 1007.9
20260506212512 58 246 0.9 0.9 0.12 0.05 0.05 95 1008.0
20260506212007 58 202 0.0 0.0 0.12 0.04 0.04 94 1007.9
20260506211502 58 313 2.6 2.6 0.05 0.03 0.03 94 1008.2
20260506211000 59 260 3.5 5.2 0.00 0.02 0.02 93 1008.2
20260506210456 59 79 1.7 2.6 0.00 0.02 0.02 91 1008.0
20260506205953 59 212 4.3 7.8 0.00 0.02 0.02 89 1008.1
20260506205449 59 164 3.5 5.2 0.00 0.02 0.02 89 1008.2
20260506204946 59 205 2.6 3.5 0.00 0.02 0.02 91 1008.1
20260506204444 59 222 1.7 2.6 0.00 0.02 0.02 91 1008.3
20260506203941 59 231 0.9 1.7 0.00 0.02 0.02 91 1008.3
20260506203438 59 213 2.6 5.2 0.00 0.02 0.02 92 1008.3
20260506202935 59 193 1.7 2.6 0.00 0.02 0.02 93 1008.4
20260506202432 59 102 1.7 1.7 0.00 0.02 0.02 92 1008.7
20260506201928 59 185 2.6 3.5 0.00 0.02 0.02 92 1008.6
20260506201426 59 223 0.9 1.7 0.00 0.02 0.02 92 1008.4
20260506200922 59 78 1.7 2.6 0.07 0.02 0.02 92 1008.6
20260506200419 58 192 2.6 3.5 0.07 0.02 0.02 91 1008.7
20260506195915 59 208 1.7 2.6 0.12 0.02 0.02 90 1009.0
20260506195413 59 191 7.8 9.6 0.05 0.01 0.01 88 1008.8
20260506194909 60 204 3.5 6.1 0.00 0.00 0.00 86 1009.0
20260506194406 60 250 2.6 2.6 0.00 0.00 0.00 83 1009.0
20260506193903 61 185 4.3 6.1 0.00 0.00 0.00 81 1008.9
20260506193400 62 243 1.7 3.5 0.00 0.00 0.00 79 1008.8
20260506192856 62 232 1.7 1.7 0.00 0.00 0.00 78 1008.8
20260506192353 62 225 7.8 13.0 0.00 0.00 0.00 78 1009.0
20260506191850 62 83 2.6 6.1 0.00 0.00 0.00 77 1008.8
20260506191346 62 242 2.6 3.5 0.00 0.00 0.00 78 1008.9
20260506190844 62 220 5.2 7.8 0.00 0.00 0.00 78 1008.9
20260506190340 62 210 6.1 7.8 0.00 0.00 0.00 77 1009.1
20260506185837 62 244 8.7 12.2 0.00 0.00 0.00 77 1009.1
20260506185334 63 205 5.2 7.8 0.00 0.00 0.00 77 1008.9
20260506184831 63 231 2.6 5.2 0.00 0.00 0.00 77 1009.0
20260506184328 63 215 4.3 7.0 0.00 0.00 0.00 77 1009.0
20260506183826 64 251 3.5 5.2 0.00 0.00 0.00 76 1009.3
20260506183320 64 198 3.5 5.2 0.00 0.00 0.00 76 1009.0
20260506182818 64 176 1.7 3.5 0.00 0.00 0.00 77 1009.1
20260506182315 63 285 1.7 2.6 0.00 0.00 0.00 76 1009.4
20260506181808 64 236 6.1 7.8 0.00 0.00 0.00 76 1009.3
20260506181305 64 188 5.2 7.0 0.00 0.00 0.00 75 1009.2
20260506180802 64 142 8.7 14.8 0.00 0.00 0.00 74 1009.5
20260506180257 64 178 3.5 6.1 0.00 0.00 0.00 74 1009.5
20260506175754 65 308 7.0 11.3 0.00 0.00 0.00 74 1009.5
20260506175251 65 207 1.7 3.5 0.00 0.00 0.00 74 1009.7
20260506174749 65 212 3.5 5.2 0.00 0.00 0.00 73 1009.9
20260506174246 66 36 3.5 7.0 0.00 0.00 0.00 72 1010.0
20260506173744 66 216 9.6 14.8 0.00 0.00 0.00 71 1010.0
20260506173240 66 142 7.8 13.0 0.00 0.00 0.00 71 1010.2
20260506172737 66 227 4.3 9.6 0.00 0.00 0.00 71 1010.1
20260506172233 67 254 2.6 5.2 0.00 0.00 0.00 71 1010.0
20260506171731 66 14 1.7 2.6 0.00 0.00 0.00 72 1009.9
20260506171228 66 317 2.6 5.2 0.00 0.00 0.00 71 1009.9
20260506170725 67 131 4.3 6.1 0.00 0.00 0.00 70 1009.9
20260506170222 66 203 4.3 9.6 0.00 0.00 0.00 72 1010.2
20260506165721 66 234 4.3 7.0 0.00 0.00 0.00 73 1010.3
20260506165217 66 296 7.0 13.0 0.00 0.00 0.00 72 1010.3
20260506164715 66 149 4.3 7.0 0.00 0.00 0.00 72 1010.4
20260506164212 66 231 3.5 6.1 0.00 0.00 0.00 71 1010.5
20260506163708 66 201 3.5 5.2 0.00 0.00 0.00 71 1010.3
20260506163203 66 157 7.8 9.6 0.00 0.00 0.00 71 1010.7
20260506162659 67 223 2.6 3.5 0.00 0.00 0.00 71 1010.5
20260506162157 66 246 5.2 6.1 0.00 0.00 0.00 70 1010.6
20260506161654 66 177 6.1 7.8 0.00 0.00 0.00 70 1010.7
20260506161150 66 174 2.6 3.5 0.00 0.00 0.00 72 1010.7
20260506160649 67 82 5.2 9.6 0.00 0.00 0.00 70 1010.7
20260506160145 67 207 2.6 2.6 0.00 0.00 0.00 70 1010.8
20260506155644 68 225 4.3 7.0 0.00 0.00 0.00 69 1011.0
20260506155140 68 226 3.5 5.2 0.00 0.00 0.00 68 1011.0
20260506153242 66 153 7.8 7.8 0.00 0.00 0.00 70 1011.1
20260506152739 66 204 2.6 3.5 0.00 0.00 0.00 71 1011.1
20260506152237 66 145 4.3 8.7 0.00 0.00 0.00 70 1011.3
20260506151736 66 266 7.0 11.3 0.00 0.00 0.00 71 1011.2
20260506151232 66 1 6.1 7.8 0.00 0.00 0.00 72 1011.1
20260506150728 66 286 4.3 9.6 0.00 0.00 0.00 71 1011.2
20260506150226 65 229 3.5 5.2 0.00 0.00 0.00 72 1011.4
20260506145723 65 208 5.2 7.0 0.00 0.00 0.00 72 1011.1
20260506145219 65 199 0.9 0.9 0.00 0.00 0.00 73 1011.2
20260506144716 65 202 2.6 6.1 0.00 0.00 0.00 73 1011.1
20260506144213 66 247 4.3 8.7 0.00 0.00 0.00 72 1011.1
20260506143711 65 322 3.5 5.2 0.00 0.00 0.00 72 1011.0
20260506143208 66 210 1.7 2.6 0.00 0.00 0.00 72 1011.2
20260506142707 66 222 5.2 7.8 0.00 0.00 0.00 71 1011.2
20260506142204 65 227 2.6 6.1 0.00 0.00 0.00 73 1011.0
20260506141702 66 64 1.7 3.5 0.00 0.00 0.00 71 1011.0
20260506141200 65 38 0.9 1.7 0.00 0.00 0.00 73 1010.8
20260506140658 65 220 2.6 2.6 0.00 0.00 0.00 73 1011.0
20260506140154 65 251 4.3 6.1 0.00 0.00 0.00 72 1011.3
20260506135651 65 241 6.1 13.9 0.00 0.00 0.00 73 1011.3
20260506135147 64 240 3.5 6.1 0.00 0.00 0.00 73 1011.3
20260506134644 64 268 4.3 7.8 0.00 0.00 0.00 74 1011.4
20260506134140 64 104 3.5 6.1 0.00 0.00 0.00 74 1011.6
20260506133637 64 107 3.5 5.2 0.00 0.00 0.00 76 1011.4
20260506133134 64 276 4.3 7.0 0.00 0.00 0.00 75 1011.6
20260506132632 64 189 7.8 13.0 0.00 0.00 0.00 76 1011.6
20260506132128 63 217 3.5 3.5 0.00 0.00 0.00 78 1011.5
20260506131626 64 318 5.2 7.8 0.00 0.00 0.00 76 1011.6
20260506131122 63 266 1.7 2.6 0.00 0.00 0.00 77 1011.6
20260506130619 63 231 4.3 7.8 0.00 0.00 0.00 77 1011.5
20260506130117 63 118 2.6 6.1 0.00 0.00 0.00 78 1011.4
20260506125615 62 197 2.6 5.2 0.00 0.00 0.00 78 1011.6
20260506125112 62 288 1.7 2.6 0.00 0.00 0.00 79 1011.3
20260506124610 62 171 3.5 6.1 0.00 0.00 0.00 80 1011.4
20260506124107 62 56 2.6 3.5 0.00 0.00 0.00 80 1011.4
20260506123605 61 230 0.9 0.9 0.00 0.00 0.00 81 1011.2
20260506123103 61 225 2.6 5.2 0.00 0.00 0.00 82 1011.4
20260506122559 61 171 3.5 6.1 0.00 0.00 0.00 83 1011.6
20260506122058 60 160 1.7 2.6 0.00 0.00 0.00 83 1011.5
20260506121555 59 162 3.5 5.2 0.00 0.00 0.00 84 1011.7
20260506121051 59 255 6.1 7.0 0.00 0.00 0.00 85 1011.9
20260506120549 59 217 1.7 2.6 0.00 0.00 0.00 85 1012.1
20260506120046 60 197 4.3 6.1 0.00 0.00 0.00 84 1012.1
20260506115544 60 262 2.6 3.5 0.00 0.00 0.00 84 1011.9
20260506115042 59 191 0.9 1.7 0.00 0.00 0.00 85 1011.9
20260506114539 59 225 3.5 3.5 0.00 0.00 0.00 86 1012.0
20260506114038 59 180 2.6 3.5 0.00 0.00 0.00 86 1012.0
20260506113535 59 227 5.2 8.7 0.00 0.00 0.00 86 1012.0
20260506113032 59 272 1.7 2.6 0.00 0.00 0.00 87 1012.2
20260506112529 59 214 3.5 5.2 0.00 0.00 0.00 86 1012.0
20260506112026 58 252 5.2 7.8 0.00 0.00 0.00 87 1011.9
20260506111524 58 238 2.6 2.6 0.00 0.00 0.00 87 1012.2
20260506111021 58 212 3.5 3.5 0.00 0.00 0.00 87 1012.2
20260506110519 59 277 0.9 1.7 0.00 0.00 0.00 87 1012.1
20260506110016 59 237 1.7 2.6 0.00 0.00 0.00 87 1012.1